Tracking 18980 objects as of 20-Feb-2018
HD Live streaming from Space Station
objects crossing your sky now

SL-14 R/B

Track SL-14 R/B now!
10-day predictions
SL-14 R/B is classified as:


NORAD ID: 11267
Int'l Code: 1979-011B
Perigee: 595.9 km
Apogee: 621.3 km
Inclination: 82.5 °
Period: 96.7 minutes
Semi major axis: 6979 km
RCS: 4.4018 m2 (large)
Launch date: February 12, 1979
Source: Commonwealth of Independent States (former USSR) (CIS)
Launch site: PLESETSK MISSILE AND SPACE COMPLEX (PKMTR)

Note: This is a ROCKET BODY
aabbcc
Your satellite tracking list
Your tracking list is empty




NASA's NSSDC Master Catalog

Two Line Element Set (TLE):
1 11267U 79011B   18050.89315166 +.00000104 +00000-0 +83021-5 0  9992
2 11267 082.5275 355.6182 0018211 123.0581 237.2389 14.88881801112321
Source of the keplerian elements: AFSPC